Content
SEND FEEDBACK

Daily
Averages
Monthly
Summary
Brazil

SÃO PAULO, SÃO PAULO


Home > South America > Brazil > São Paulo
Elevation: 2634 feet     Latitude: 23 37S     Longitude: 046 39W

WEATHER
 
SELECT A DAY
Number of Records: 161,212;   Date Range: 6/30/96 - 10/19/14
 
SHARE

PRINT THIS DATA

[ ← Previous Day ]
WEATHER ALMANAC - MARCH 14, 2013
[ Next Day → ]
[ °C ]   °F
Weather ElementAverageHighLow
Temperature67.5 °F70 °F (3:00 pm)66 °F (9:00 pm)
Dewpoint62.3 °F64.4 °F (1:00 am)60.8 °F (6:00 pm)
Humidity83 %88 % (1:00 am)69 % (3:00 pm)
Barometer30.08 in30.15 in (10:00 pm)30.01 in (2:00 am)
Wind Speed10.7 mph16.1 mph (4:40 pm)
Wind Gust23 mph (6:00 pm)
Weather ElementAverage
Visibility5.8 mi
Wind DirectionSSE (146.9 °)

Weather ElementTotal
Precipitation---
Cooling Degree Days3 (Base 65)
Growing Degree Days18 (Base 50)
Averaged from 29 records on March 14, 2013
WEATHER CONDITIONS BREAKOUT
WIND DIRECTION BREAKOUT
WEATHER BY HOUR - MARCH 14, 2013
[ °C ]   °F
Local TimeTemperatureDewpointHumidityBarometerVisibilityWind DirectionWind SpeedGust SpeedPrecipitationEventsConditions
1:00 AM68.0 °F64.4 °F88 %30.04 in5.0 miSouth (170°)10.4 mphRainLight Rain
2:00 AM68.0 °F64.4 °F88 %30.01 in6.2 miSouth (170°)11.5 mphOvercast
3:00 AM67.0 °F63.0 °F81 %7.0 miSSE (160°)10.4 mphRainLight Rain
3:00 AM66.2 °F62.6 °F88 %30.01 in6.2 miSSE (160°)10.4 mphOvercast
4:00 AM66.2 °F62.6 °F88 %30.04 in6.2 miSSE (150°)9.2 mphOvercast
5:00 AM66.2 °F62.6 °F88 %30.04 in6.2 miSE (140°)6.9 mphOvercast
5:35 AM66.2 °F62.6 °F88 %30.04 in5.6 miSSE (150°)8.1 mphLight Drizzle
6:00 AM66.2 °F62.6 °F88 %30.04 in4.3 miSSE (150°)8.1 mphLight Drizzle
7:00 AM68.0 °F62.6 °F83 %30.06 in6.2 miSSE (160°)10.4 mphOvercast
8:00 AM68.0 °F62.6 °F83 %30.09 in6.2 miSSE (160°)9.2 mphOvercast
9:00 AM68.0 °F62.0 °F76 %9.0 miSSE (160°)9.2 mphMist
9:00 AM68.0 °F62.6 °F83 %30.09 in6.2 miSSE (160°)9.2 mphOvercast
10:00 AM68.0 °F62.6 °F83 %30.12 in3.1 miSSE (160°)10.4 mphLight Drizzle
11:00 AM69.8 °F64.4 °F83 %30.12 in6.2 miSE (140°)9.2 mphOvercast
12:00 PM69.8 °F62.6 °F78 %30.12 in6.2 miSE (130°)11.5 mphOvercast
1:00 PM69.8 °F62.6 °F78 %30.12 in6.2 miSSE (150°)11.5 mphOvercast
2:00 PM69.8 °F62.6 °F78 %30.09 in5.0 miSE (130°)10.4 mphOvercast
3:00 PM70.0 °F62.0 °F69 %6.0 miSSE (150°)12.7 mphHaze
3:00 PM69.8 °F62.6 °F78 %30.06 in6.2 miSSE (150°)12.7 mphMostly Cloudy
4:00 PM68.0 °F62.6 °F83 %30.06 in6.2 miSE (130°)9.2 mphOvercast
4:40 PM66.2 °F62.6 °F88 %30.06 in3.1 miSSE (150°)16.1 mphLight Drizzle
5:00 PM66.2 °F62.6 °F88 %30.06 in3.1 miSSE (150°)15.0 mphLight Drizzle
6:00 PM66.2 °F60.8 °F83 %30.06 in5.6 miSE (130°)11.5 mph23.0 mphOvercast
7:00 PM66.2 °F60.8 °F83 %30.09 in6.2 miSE (140°)12.7 mphOvercast
8:00 PM66.2 °F60.8 °F83 %30.09 in6.2 miSE (140°)10.4 mphOvercast
9:00 PM66.0 °F61.0 °F80 %6.0 miSE (140°)10.4 mphMist
9:00 PM66.2 °F60.8 °F83 %30.12 in6.2 miSE (140°)10.4 mphOvercast
10:00 PM66.2 °F60.8 °F83 %30.15 in6.2 miSE (130°)12.7 mphOvercast
11:00 PM66.2 °F60.8 °F83 %30.12 in6.2 miESE (110°)9.2 mphOvercast
Hourly data recorded from SBSP, located miles away from São Paulo, São Paulo







STORIES FROM OUR PARTNERS